Location: La Silve
(44.2414°N, 5.8889°E)
Time: 05:05:01
(UTC+00:00)

Envisat - Pass Details

Date: 01 December 2020
Orbit: 764 x 766 km, 98.1° (Epoch: 27 January)

Event Time Altitude Azimuth Distance (km) Brightness Sun altitude
Rises 16:34:14 0° 165° (SSE) 3,218 6.4 -6.5°
Reaches altitude 10° 16:36:31 10° 166° (SSE) 2,296 5.6 -6.8°
Maximum altitude 16:41:36 88° 253° (WSW) 773 3.1 -7.7°
Drops below altitude 10° 16:46:43 10° 346° (NNW) 2,314 5.4 -8.5°
Sets 16:49:02 0° 347° (NNW) 3,245 6.2 -8.9°
